Location: Acts Church of Fort Worth
(32.6786°N, 97.2668°W)
Time: 08:13:58
(UTC+00:00)

SPOT 1/Viking Rocket - Pass Details

Date: 18 January 2026
Orbit: 772 x 790 km, 98.2° (Epoch: 10 February)

Event Time Altitude Azimuth Distance (km) Brightness Sun altitude
Rises 00:13:05 0° 150° (SSE) 3,256 6.7 -5.7°
Reaches altitude 10° 00:15:29 10° 143° (SE) 2,329 5.8 -6.2°
Maximum altitude 00:20:19 43° 73° (ENE) 1,080 3.9 -7.1°
Drops below altitude 10° 00:25:10 10° 3° (N) 2,330 5.8 -8.1°
Sets 00:27:34 0° 357° (N) 3,259 6.6 -8.6°
